THORAD AGENA D DEB, 4738

Orbit data source: Space-Track

THORAD AGENA D DEB, 4738 is space debris in SSO originally from a launch on Wed, 08 Apr 1970 UTC launched from the Air Force Western Test Range (AFWTR). Debris objects in space refer to the collection of defunct objects orbiting the Earth. Examples of debris include non-operational satellites, rocket bodies, and fragments generated from explosions, collisions, or faulty payload assembly.

Loading next visibility...
Identifier
4738, 1970-025CM
Orbit
SSO
Country
Flag of USUS
Related business
Manufacturer
Unknown
Mission
Spacecraft
Bus & Motor
Unknown
Mass
Unknown
Launch date (UTC)
1970-04-08 (56 years ago)
Launch vehicle
Unknown
Launch site
Air Force Western Test Range (AFWTR)
Object type
Payload
Rocket body
Debris
Shape & HBR
Unknown shape, 0.1 m
Radar Cross Section
Small (<0.1 m²)

Expand to show TLE details & history
Last TLE update: 19 hours ago

TLE from 19 hours ago
0 THORAD AGENA D DEB
1 04738U 70025CM  25355.16472726  .00002159  00000-0  11074-2 0  9993
2 04738 100.0967 330.4647 0047623  41.2843 319.1912 14.16123579815131
Epoch: 2025-12-21T03:57Z
TLE epoch observation values (Epoch: 2025-12-21T03:57:12.435Z)
Latitude
0.00001°
Longitude
-178.81821°
Altitude
815.406 km
Speed
7.459 km/s
True Right ascension
22h 01m 51s
True Declination
0° 00' 00"
Sunlit
Object was in daylight at epoch
Visualization orbit readout
Latitude
Unknown
Longitude
Unknown
Altitude
Unknown
Speed
Unknown
Apparent Right ascension
Unknown
Apparent Declination
Unknown
Sunlit
N/A
Visualization observer readout
Local Sidereal Time
21:37:07
Azimuth
Unknown
Elevation
Unknown
Doppler factor
Unknown
Orbital elements
Apogee altitude
870.082 km
Perigee altitude
801.373 km
Semi-major axis
7,213.865 km
Eccentricity
0.00476
Inclination
100.0967°
RAAN
330.4647°
Arg. of periapsis
41.2843°
True anomaly
318.83294°
Mean anomaly
319.1912°
Eccentric anomaly
319.01223°
Mean motion
3.54235 °/min
Orbital period
101.63 mins
BSTAR
0.0011074
Loading maneuver chart data...
Computing Atmospheric mass density...
Loading historical data...
Loading historical data...
Loading historical data...
Loading historical data...
Loading historical data...
Loading historical data...
Loading historical data...

Documentation

Showing up to 5 results
|